Погода в Бирзаи

Погода в Бирзаи : погода сейчас, прогноз погоды и архив. Всё, что Вы хотите узнать о погоде в Бирзаи!

Поиск расширенной информации на нашем сайте:

Другие новости

Новости СМИ2

Главная страница сайта

Новости сайта

03.07.2017

Напоминаем, что на нашем специализированном сайте Метеоцентр.Азия вы можете получить высокодетализированные автоматические прогнозы погоды по пунктам России, СНГ и мира в авиационном формате (включающие направление и скорость ветра, видимость, явления погоды, количество и форму облачности, нижнюю и верхнюю границу облачности).


Погода в Бирзаи - сегодня

Время (UTC), дата Ветер
(°,м/с) 
Видим.   Явления Облачность Т
(°С)
Тd
(°С)
f(%) Тe
(°С)
Pmin
(гПа)
dP
(гПа)
Po
(мм)
O2
(г/м3)
Тmin Tmax R s Состояние
почвы
18 15.09.18 250 (З) 3-5{10}  20000 м  слаб. ливневой дождь  10/8 600 м кучево-дожд., средняя 
[Cb cap|Ac As]
+14.6 +7.6 63 +15  1015.3  0.6  756  287    +19.6  0.0     
21 15.09.18 240 (ЮЗ) 2-4{07}  20000 м  {ливн. осадки}  ясно 
+11.6 +9.4 86 +12  1015.3  -0.1  756  290           
00 16.09.18 250 (З) 2-5{06}  17000 м  {ливн. осадки}  1/1 1500 м 
[Sc]
+9.9 +8.9 93 +10  1015.9  0.6  756  293      0.0     
03 16.09.18 250 (З) 3-5{05}  18000 м    1/1 1500 м 
[Sc]
+8.5 +7.8 95 +8  1016.7  0.7  757  294           
06 16.09.18 270 (З) 4-6{06}  20000 м    3/3 1000 м 
[Sc]
+10.4 +8.4 87 +10  1018.3  1.7  758  292  +7.9    0.0    сухая 
09 16.09.18 290 (З) 5-9{11}  19000 м    4/4 1170 м 
[Cu med, cong]
+15.8 +6.8 55 +16  1019.5  1.3  759  287           
12 16.09.18 270 (З) 4-9{10}  19000 м    4/4 1000 м 
[Cu med, cong]
+17.8 +5.1 43 +18  1019.9  -0.1  759  286           
15 16.09.18 260 (З) 4-9{10}  20000 м    3/3 1500 м 
[Cu med, cong]
+17.7 +4.1 40 +18  1019.8  759  286           
18 16.09.18 260 (З) 2-3{09}  20000 м    3/3 1500 м 
[Sc diur, vesp]
+12.3 +4.5 59 +13  1020.9  0.9  760  292    +18.4       
21 16.09.18 260 (З) 2-4{05}  20000 м    ясно 
+9.7 +5.3 74 +10  1021.3  0.3  760  294           
00 17.09.18 230 (ЮЗ) 1-3{04}  20000 м    6/0 средняя 
[Ac und]
+7.9 +5.5 85 +9  1020.8  -0.5  760  297           
03 17.09.18 240 (ЮЗ) 3-6{07}  20000 м    9/9 1300 м 
[Sc]
+10.4 +7.7 83 +10  1019.8  -0.9  759  293           
06 17.09.18 230 (ЮЗ) 3-5{08}  20000 м    9/0 средняя 
[Ac As]
+11.3 +8.9 85 +11  1018.9  -0.9  759  291  +7.9        сухая 
09 17.09.18 240 (ЮЗ) 5-10{10}  20000 м    10/0 средняя 
[Ac As]
+16.1 +9.2 64 +16  1017.5  -1.2  758  286           
12 17.09.18 240 (ЮЗ) 5-10{15}  20000 м  в посл. час ливневой дождь  10/4 1000 м кучево-дожд., средняя 
[Cb cap|Ac As]
+17.3 +9.8 61 +18  1015.8  -1.7  756  285      0.0     
15 17.09.18 260 (З) 6-12{13}  20000 м    10/6 1000 м средняя 
[Sc|Ac As]
+19.2 +9.4 53 +19  1014.8  -1  756  282           
18 17.09.18 260 (З) 6-11{12}  20000 м    6/5 1000 м средняя 
[Sc|Ac trans]
+17.7 +11.4 67 +21  1015.2  0.4  756  283    +19.5  0.0     
21 17.09.18 270 (З) 3-6{11}  20000 м    5/5 600 м 
[Sc]
+15.4 +12.3 82 +20  1016.3  757  286           
00 18.09.18 260 (З) 3-5{07}  16000 м    4/0 верхняя 
[Ci fib]
+13.6 +12.1 91 +18  1017.2  0.9  757  288           
03 18.09.18 250 (З) 2-3{05}  6000 м  дымка  8/0 средняя 
[Ac As]
+12.1 +11.3 95 +15  1018  0.7  758  290           
06 18.09.18 240 (ЮЗ) 2-4{05}  4700 м  дымка  10/10 100 м 
[St]
+12.8 +12.2 96 +17  1018.8  0.9  758  289  +11.9        сухая 
09 18.09.18 240 (ЮЗ) 2-5{06}  19000 м    8/4 600 м верхняя 
[Cu hum|Ci]
+17.8 +13 73 +24  1019  0.3  759  284           
12 18.09.18 240 (ЮЗ) 3-6{08}  19000 м    8/6 1260 м средняя 
[Cu hum|Ac trans]
+21.6 +11.5 53 +25  1017.9  -1  758  281           
15 18.09.18 250 (З) 3-5{07}  20000 м    1/1 1000 м 
[Sc diur, vesp]
+21.9 +13 57 +27  1016.6  -1.3  757  279           
18 18.09.18 240 (ЮЗ) 1-3{08}  19000 м    ясно 
+17.5 +10.2 62 +20  1016.8  0.1  757  284    +23.1       
Время (UTC), дата Ветер
(°,м/с) 
Видим.   Явления Облачность Т
(°С)
Тd
(°С)
f(%) Тe
(°С)
Pmin
(гПа)
dP
(гПа)
Po
(мм)
O2
(г/м3)
Тmin Tmax R s Состояние
почвы

Для получения пояснительной информации подведите курсор к названию столбца.

ПОГОДА в Бирзаи - архив

Всё, что Вы хотите узнать о погоде в Бирзаи - удобно и подробно!

Выберите нужную дату (начиная с 1 января 2015* года) и нажмите кнопку "Найти".
Будут отображены архивные сводки погоды по пункту Бирзаи, начиная с указанной даты.


Отображать данные в формате CSV (для использования в таблицах Excel)


Внимание! Наш архив погоды предназначен исключительно для личного некоммерческого использования в познавательных целях. Если Вам необходимы официальные справки о состоянии погоды (для производственных, юридических, коммерческих и т.п. целей), обращайтесь в органы Росгидромета.

*Примечание: данная дата относится к архиву по метеостанциям СССР (Россия, СНГ, Балтия).
Архив по метеостанциям Зарубежной Европы и Азии (кроме Китая) хранится 10 дней, по другим регионам земного шара (Китай, Африка, Америка, Австралия, Океания) - 1 день.

Бирзаи - район местоположения метеостанции


Название, широта, долгота, высота метеостанции:
Бирзаи 56.2°ш. 24.8°д. 62 м над ур. моря [Литва]

Дополнительная информация

В oтличие oт бoльшинства пoгoдных сайтoв мы публикуем пoдрoбную метеoинфoрмацию в детальнoм прoфессиoнальнoм фoрмате.

Характеристики температуры и влажнoсти вoздуха измеряются на высoте 2 м в тени вдали oт зданий и деревьев.
Скoрoсть ветра измеряется на высoте 10 м (на урoвне рoста челoвека скoрoсть ветра ниже в 1.5-2 раза). Если метеoстанция нахoдится в гoрoде или в лесу, тo скoрoсть ветра занижена на 2-4 м/с пo сравнению с oткрытым местoм. Скoрoсть ветра над акватoриями крупных рек и oзёр, а также на вершинах хoлмoв на 2-5 м/с выше, чем в oбычных услoвиях.
Атмoсфернoе давление в разных тoчках местнoсти мoжет значительнo oтличаться oт давления на метеoстанции, в зависимoсти oт услoвий рельефа (при пoдъёме на 10 м давление пoнижается примернo на 1 мм рт.ст.).